Location: Civís
(42.4648°N, 1.4232°E)
Time: 17:40:49
(UTC+00:00)

Cosmos 1441 Rocket - Pass Details

Date: 21 November 2025
Orbit: 425 x 449 km, 81.1° (Epoch: 04 December)

Event Time Altitude Azimuth Distance (km) Brightness Sun altitude
Rises 17:13:34 0° 328° (NNW) 2,412 6.8 -8.7°
Reaches altitude 10° 17:16:35 10° 297° (WNW) 1,544 6.3 -9.2°
Maximum altitude 17:18:03 12° 271° (W) 1,405 6.7 -9.5°
Drops below altitude 10° 17:19:30 10° 245° (WSW) 1,544 7.2 -9.7°
Sets 17:22:32 0° 215° (SW) 2,413 7.5 -10.3°
